Regional Weather Roundup
Issued by NWS Charleston, SC

Current Version | Previous Version | Graphics & Text | Print | Product List | Glossary On
Versions: 1 2 3 4 5 6 7 8 9 10 11 12 13 14 15 16 17 18 19 20 21 22 23 24 25 26 27 28 29 30 31 32 33 34 35 36 37 38 39 40 41 42 43 44 45 46 47 48 49 50
961
ASUS42 KCHS 030027
RWRCHS

REGIONAL WEATHER ROUNDUP
NATIONAL WEATHER SERVICE CHARLESTON SC
700 PM EST FRI DEC 02 2016

NOTE: "FAIR" INDICATES FEW OR NO CLOUDS BELOW 12,000 FEET WITH NO
SIGNIFICANT WEATHER AND/OR OBSTRUCTIONS TO VISIBILITY.

NOT ALL STATIONS ARE QUALITY CONTROLLED. USE DATA WITH CAUTION...
ESPECIALLY DEWPOINT OBSERVATIONS.

SCZ027-030-031-034>040-042>050-030100-
...SOUTHEAST SOUTH CAROLINA...

CITY           SKY/WX    TMP DP  RH WIND       PRES   REMARKS
N CHARLESTON   CLEAR     49  37  63 CALM      30.18R
6HR MIN TEMP:  48; 6HR MAX TEMP:  63;

WATERFRONT PRK   N/A     56  41  57 CALM      30.17R
MOUNT PLEASANT FAIR      45  39  81 CALM      30.18F
JOHNS ISLAND   FAIR      48  41  76 CALM      30.19R
PINOPOLIS        N/A     57  43  58 W6        30.09R
MONCKS CORNER  FAIR      43  39  87 CALM      30.18S
SUMMERVILLE    FAIR      45  41  87 CALM      30.20R
BEAUFORT MCAS  CLEAR     48  41  76 CALM      30.19S
6HR MIN TEMP:  48; 6HR MAX TEMP:  63;

BEAUFORT ARPT  FAIR      50  41  71 NW3       30.19R
HILTON HEAD IS CLEAR     46  39  76 CALM      30.19
WALTERBORO     CLEAR     45  45 100 CALM      30.19S
ALLENDALE      FAIR      46  39  76 CALM      30.19S

...SOUTHERN MIDLANDS AND PEE DEE...

CITY           SKY/WX    TMP DP  RH WIND       PRES   REMARKS
GEORGETOWN     NOT AVBL
KINGSTREE      FAIR      41  36  81 CALM      30.19R
ORANGEBURG     CLEAR     47  36  65 CALM      30.19R
6HR MIN TEMP:  47; 6HR MAX TEMP:  61;

BARNWELL       NOT AVBL
AIKEN          FAIR      43  36  75 CALM      30.23R
MANNING        NOT AVBL
COLUMBIA       PTCLDY    50  36  58 W5        30.19R
6HR MIN TEMP:  48; 6HR MAX TEMP:  62;

SUMTER         PTCLDY    48  37  64 SW5       30.16R
6HR MIN TEMP:  48; 6HR MAX TEMP:  61;

FLORENCE       CLEAR     48  38  68 W3        30.17R
6HR MIN TEMP:  47; 6HR MAX TEMP:  60;

MYRTLE BEACH   CLEAR     46  36  66 W5        30.19R
N MYRTLE BEACH PTCLDY    46  41  82 CALM      30.16R
6HR MIN TEMP:  46; 6HR MAX TEMP:  60;


$$

GAZ063-065-086>088-099>101-113>116-118-119-134>141-150-030100-
...SOUTHEAST GEORGIA...

CITY           SKY/WX    TMP DP  RH WIND       PRES   REMARKS
SAVANNAH ARPT  PTCLDY    49  40  71 CALM      30.19R
6HR MIN TEMP:  49; 6HR MAX TEMP:  64;

HUNTER AAF     CLEAR     49  42  76 CALM      30.16S
6HR MIN TEMP:  48; 6HR MAX TEMP:  64;

FORT STEWART   CLOUDY    48  40  74 CALM      30.17R
6HR MIN TEMP:  47; 6HR MAX TEMP:  64;

STATESBORO     CLEAR     45  42  91 CALM      30.21R
SYLVANIA       CLEAR    N/A N/A N/A CALM      30.21R
CLAXTON        FAIR      44  44  99 CALM      30.21R

...CSRA...CENTRAL AND FAR SOUTHEAST GEORGIA...

CITY           SKY/WX    TMP DP  RH WIND       PRES   REMARKS
THOMSON        PTCLDY    47  38  73 CALM      30.25S
AUGUSTA-BUSH   CLEAR     47  36  65 CALM      30.20R
6HR MIN TEMP:  46; 6HR MAX TEMP:  64;

AUGUSTA-DANIEL PTCLDY    53  31  42 CALM      30.21R
SWAINSBORO     FAIR      45  37  76 CALM      30.22R
VIDALIA        CLOUDY    54  37  54 N6        30.20S
EASTMAN        FAIR      46  29  52 CALM      30.24R
HAZLEHURST     FAIR      56  33  41 N5        30.20R
ALMA           CLOUDY    48  40  73 CALM      30.19R
6HR MIN TEMP:  48; 6HR MAX TEMP:  66;

WAYCROSS       CLOUDY    53  43  68 CALM      30.21R
JESUP          FAIR      46  43  87 CALM      30.20R
BAXLEY         FAIR      48  43  81 CALM      30.20R
BRUNSWICK      MOCLDY    52  45  76 CALM      30.20R
SAINT SIMONS   MOCLDY    55  40  56 N5        30.18R
6HR MIN TEMP:  55; 6HR MAX TEMP:  67;


$$

SCZ027-028-034-036>038-045-046-048>050-GAZ119-141-030100-
...LAKE AND SUPPLEMENTAL COASTAL OBSERVATIONS...

STATION/POSITION TIME  TEMP    WIND        PRES    WAVE   SWELL
                       AIR SEA DIR/SP/G            HT/PER HT/PER/DIR
                 (UTC) (F)     (DEG/KT/KT) (MB)    (FT/S) (FT/S/D)
WINYAH BAY       2245   51     310/  2     1020.0
LAKE MURRAY      2320   56     270/  5/  6 1021.3
ACE BASIN NERRS  2245   51        CALM     1021.0
FORT PULASKI     2248   57 63  340/  5/  6 1022.0
SAPELO ISLAND    2300   59     350/  5     1022.0

$$

ANZ835-935-AMZ111-154-330-350-352-354-370-450-454-472-030100-
...C-MAN AND BUOY OBSERVATIONS...

STATION/POSITION TIME  TEMP    WIND        PRES    WAVE   SWELL
                       AIR SEA DIR/SP/G            HT/PER HT/PER/DIR
                 (UTC) (F)     (DEG/KT/KT) (MB)    (FT/S) (FT/S/D)
BUOY 41004       2350   61 74  330/ 12/ 16 1021.1R   3/ 8   2/120/ 8
BUOY 41008       2350   60 65   20/  8/ 10 1021.4F   2/ 8   2/120/ 8
FOLLY BEACH CMAN 0000   55     310/  2/  3 1022.4R
CAPERS NEARSHORE 2308   58 63  340/ 12/ 16 1021.3R
FRIPP NEARSHORE  2308   59 63  320/ 10/ 12 1021.5R


STATION/POSITION TIME  TEMP    WIND        PRES    WAVE   SWELL
                       AIR SEA DIR/SP/G            HT/PER HT/PER/DIR
                 (UTC) (F)     (DEG/KT/KT) (MB)    (FT/S) (FT/S/D)
5E ST. MARYS GA  2300      67                N/A     2/ 8
FRYING PAN BUOY  0010   60 74  310/ 14/ 19 1020.5
BUOY 41025       2350   56 76  300/ 16/ 19 1018.7S   3/ 7   3/ 90/ 7
CAPE LOOKOUT NC  0000   55     300/ 14/ 16 1019.5R
BUOY 41002       2350   69 74  350/ 10/ 12 1017.6F   4/ 6   3/250/ 6
BUOY 41010       NOT AVBL
ST AUGUSTINE FL  0000   63 67   10/  9/  9 1022.6R


$$




USA.gov is the U.S. government's official web portal to all federal, state and local government web resources and services.